Weather Roundup
Issued by NWS Springfield, MO

Home | Current Version | Previous Version | Text Only | Print | Product List | Glossary On
Versions: 1 2 3 4 5 6 7 8 9 10 11 12 13 14 15 16 17 18 19 20 21 22 23 24 25 26 27 28 29 30 31 32 33 34 35 36 37 38 39 40 41 42 43 44 45 46 47 48 49 50
000
NZUS99 KSGF 282007
HRRSGF

HOURLY WEATHER
NATIONAL WEATHER SERVICE SPRINGFIELD MO
300 PM CDT MON JUL 28 2014

......SGF CWA......

CITY           SKY/WX    TMP DP  RH WIND       PRES   REMARKS
SPRINGFIELD    MOSUNNY   83  57  41 NW15G22   30.16F
JOPLIN         SUNNY     85  55  35 N6        30.17F
WEST PLAINS    PTSUNNY   82  58  43 N12       30.13F
ROLLA          PTSUNNY   81  57  43 N12       30.12F
OSAGE BEACH    MOSUNNY   81  57  44 NW7       30.14F
BRANSON        MOSUNNY   86  54  32 N9G23     30.16F

......SURROUNDING SGF CWA......

CITY           SKY/WX    TMP DP  RH WIND       PRES   REMARKS
CHANUTE        SUNNY     83  58  42 N14       30.20F
PARSONS        SUNNY     85  57  38 N10       30.19F
COFFEYVILLE    SUNNY     85  59  41 NW10G16   30.18F
EMPORIA        SUNNY     84  54  35 N14       30.21F
GROVE OK       SUNNY     86  57  37 N10G16    30.18F
ROGERS AR      SUNNY     82  54  37 N9G18     30.19F
SILOAM SPRINGS SUNNY     81  57  44 N13       30.19F
HARRISON AR    SUNNY     83  57  41 N10       30.15F
NEAR YELLVILLE MOSUNNY   84  57  39 N8        30.12F

......KANSAS AND MISSOURI......

CITY           SKY/WX    TMP DP  RH WIND       PRES   REMARKS
KANSAS CTY INT PTSUNNY   80  60  50 N13       30.20F
DOWNTOWN KC    PTSUNNY   79  59  50 N10       30.18F
COLUMBIA       PTSUNNY   79  58  48 NW14G21   30.16S
SEDALIA        PTSUNNY   78  61  55 N13       30.17F
ST JOSEPH      PTSUNNY   75  61  61 N9        30.21F
ST LOUIS       PTSUNNY   80  61  52 N14       30.11S
SPIRIT OF STL  PTSUNNY   78  57  48 N13       30.10S
KIRKSVILLE     PTSUNNY   78  55  44 N12       30.20S
WICHITA        MOSUNNY   84  59  42 NW9       30.23F
TOPEKA         MOSUNNY   83  56  39 NW9       30.21F
OLATHE         PTSUNNY   80  57  45 N12       30.19F

......TENNESSEE......

CITY           SKY/WX    TMP DP  RH WIND       PRES   REMARKS
MEMPHIS        MOSUNNY   85  63  47 N13G21    30.05F
NASHVILLE      PTSUNNY   82  59  45 NW15      30.00S

......ARKANSAS.......

CITY           SKY/WX    TMP DP  RH WIND       PRES   REMARKS
FAYETTEVILLE   SUNNY     84  59  42 N13G18    30.17F
FT SMITH       SUNNY     89  57  33 N14       30.12F
LITTLE ROCK    MOSUNNY   88  60  38 N14       30.08F

......OKLAHOMA.......

CITY           SKY/WX    TMP DP  RH WIND       PRES   REMARKS
TULSA          PTSUNNY   88  58  36 N10       30.17F
PONCA CITY     PTSUNNY   84  59  42 NW7       30.21F
MCALESTER      PTSUNNY   88  60  38 N10       30.18F
OKLAHOMA CITY  CLOUDY    86  58  38 N8        30.23F

......IOWA............

CITY           SKY/WX    TMP DP  RH WIND       PRES   REMARKS
DES MOINES     PTSUNNY   76  54  46 W9        30.19F
QUAD CITIES    PTSUNNY   73  49  42 N9        30.14S

......ILLINOIS........

CITY           SKY/WX    TMP DP  RH WIND       PRES   REMARKS
QUINCY         MOSUNNY   73  54  51 NW14      30.15S
CHICAGO        PTSUNNY   71  44  37 N12       30.08S



USA.gov is the U.S. government's official web portal to all federal, state and local government web resources and services.